FW1341 Weather Reports


time (UTC)temp
C
wind
direction
speed
KPH
gust
KPH
rain 1hr
cm
rain 24hr
cm
rain mn
cm
humidity
%
barometer
mb
20260503055044 9 13 1.6 9.7 0.00 0.00 0.00 58 1010.9
20260503054046 9 326 3.2 11.3 0.00 0.00 0.00 56 1010.9
20260503053540 9 20 3.2 11.3 0.00 0.00 0.00 56 1010.9
20260503053040 9 283 3.2 11.3 0.00 0.00 0.00 56 1010.9
20260503052540 9 341 1.6 11.3 0.00 0.00 0.00 56 1011.0
20260503052039 10 32 1.6 12.9 0.00 0.00 0.00 57 1010.9
20260503051541 10 340 3.2 14.5 0.00 0.00 0.00 56 1010.9
20260503051042 10 306 1.6 14.5 0.00 0.00 0.00 56 1011.0
20260503050035 10 337 1.6 6.4 0.00 0.00 0.00 56 1010.9
20260503045537 10 346 3.2 14.5 0.00 0.00 0.00 56 1011.0
20260503045035 10 50 4.8 14.5 0.00 0.00 0.00 56 1011.0
20260503044037 10 29 1.6 8.0 0.00 0.00 0.00 56 1011.0
20260503043531 10 339 1.6 8.0 0.00 0.00 0.00 56 1011.0
20260503043031 10 8 1.6 8.0 0.00 0.00 0.00 55 1011.1
20260503042531 10 15 3.2 20.9 0.00 0.00 0.00 54 1011.1
20260503042032 10 12 4.8 20.9 0.00 0.00 0.00 54 1011.1
20260503041533 10 25 3.2 14.5 0.00 0.00 0.00 54 1011.1
20260503040527 11 20 3.2 14.5 0.00 0.00 0.00 53 1011.0
20260503040027 11 22 3.2 16.1 0.00 0.00 0.00 53 1011.1
20260503035529 11 293 4.8 16.1 0.00 0.00 0.00 53 1011.1
20260503035026 11 340 4.8 16.1 0.00 0.00 0.00 53 1011.0
20260503034527 11 15 6.4 19.3 0.00 0.00 0.00 52 1011.0
20260503034027 11 36 8.0 24.1 0.00 0.00 0.00 52 1011.0
20260503033522 11 22 8.0 24.1 0.00 0.00 0.00 52 1010.9
20260503033025 11 6 6.4 24.1 0.00 0.00 0.00 51 1010.8
20260503032524 11 11 6.4 17.7 0.00 0.00 0.00 50 1010.7
20260503031524 12 311 4.8 16.1 0.00 0.00 0.00 50 1010.8
20260503031025 12 23 4.8 20.9 0.00 0.00 0.00 49 1010.7
20260503030519 12 6 4.8 20.9 0.00 0.00 0.00 49 1010.7
20260503030020 12 333 3.2 16.1 0.00 0.00 0.00 49 1010.7
20260503025521 12 336 3.2 16.1 0.00 0.00 0.00 49 1010.7
20260503024519 12 359 3.2 17.7 0.00 0.00 0.00 48 1010.7
20260503024020 12 22 4.8 17.7 0.00 0.00 0.00 47 1010.7
20260503023518 12 0 3.2 12.9 0.00 0.00 0.00 47 1010.7
20260503022518 12 8 3.2 9.7 0.00 0.00 0.00 48 1010.7
20260503021509 12 95 3.2 11.3 0.00 0.00 0.00 47 1010.7
20260503021007 12 333 3.2 11.3 0.00 0.00 0.00 47 1010.6
20260503020507 12 332 3.2 12.9 0.00 0.00 0.00 47 1010.7
20260503020002 12 330 3.2 12.9 0.00 0.00 0.00 46 1010.6
20260503015503 12 304 3.2 14.5 0.00 0.00 0.00 46 1010.5
20260503015003 12 333 3.2 14.5 0.00 0.00 0.00 46 1010.5
20260503014502 12 75 3.2 12.9 0.00 0.00 0.00 46 1010.4
20260503014001 12 34 3.2 11.3 0.00 0.00 0.00 46 1010.4
20260503013502 13 76 3.2 11.3 0.00 0.00 0.00 46 1010.3
20260503013001 13 56 1.6 9.7 0.00 0.00 0.00 46 1010.3
20260503012500 13 334 1.6 11.3 0.00 0.00 0.00 45 1010.3
20260503011958 13 8 3.2 11.3 0.00 0.00 0.00 45 1010.3
20260503011457 13 32 1.6 9.7 0.00 0.00 0.00 46 1010.2
20260503010957 13 348 1.6 9.7 0.00 0.00 0.00 45 1010.1
20260503010456 13 11 1.6 9.7 0.00 0.00 0.00 45 1010.0
20260503005458 13 348 4.8 11.3 0.00 0.00 0.00 44 1010.0
20260503004959 13 16 4.8 16.1 0.00 0.00 0.00 44 1009.9
20260503004454 13 77 3.2 16.1 0.00 0.00 0.00 44 1009.9
20260503003456 13 97 3.2 14.5 0.00 0.00 0.00 44 1009.8
20260503002455 13 41 3.2 14.5 0.00 0.00 0.00 44 1009.6
20260503001954 13 22 3.2 14.5 0.00 0.00 0.00 43 1009.5
20260503001455 13 15 4.8 19.3 0.00 0.00 0.00 43 1009.4
20260503000957 13 8 6.4 19.3 0.00 0.00 0.00 42 1009.3
20260502235948 13 22 4.8 17.7 0.00 0.00 0.00 42 1009.3
20260502235448 13 68 4.8 12.9 0.00 0.00 0.00 42 1009.1
20260502234947 14 38 3.2 12.9 0.00 0.00 0.00 41 1009.1
20260502234446 14 77 4.8 16.1 0.00 0.00 0.00 41 1009.0
20260502233947 14 318 6.4 16.1 0.00 0.00 0.00 41 1009.0
20260502233447 14 63 4.8 19.3 0.00 0.00 0.00 41 1009.0
20260502232443 15 33 4.8 12.9 0.00 0.00 0.00 41 1008.9
20260502231943 14 23 4.8 12.9 0.00 0.00 0.00 40 1008.9
20260502231445 14 134 4.8 17.7 0.00 0.00 0.00 41 1009.0
20260502230943 15 4 3.2 17.7 0.00 0.00 0.00 40 1008.9
20260502230443 15 34 1.6 17.7 0.00 0.00 0.00 40 1008.9
20260502225442 15 37 1.6 12.9 0.00 0.00 0.00 40 1008.8
20260502224942 15 19 1.6 12.9 0.00 0.00 0.00 41 1008.9
20260502224440 15 34 3.2 9.7 0.00 0.00 0.00 39 1008.8
20260502223938 15 326 4.8 9.7 0.00 0.00 0.00 39 1008.9
20260502222939 15 15 6.4 17.7 0.00 0.00 0.00 38 1008.9
20260502221940 15 289 6.4 14.5 0.00 0.00 0.00 38 1008.8
20260502221433 15 307 6.4 14.5 0.00 0.00 0.00 38 1008.9
20260502220933 15 233 6.4 14.5 0.00 0.00 0.00 37 1008.9
20260502220430 16 359 4.8 16.1 0.00 0.00 0.00 38 1008.9
20260502215930 16 322 6.4 17.7 0.00 0.00 0.00 37 1008.8
20260502214930 16 311 8.0 19.3 0.00 0.00 0.00 36 1008.8
20260502214432 16 323 8.0 20.9 0.00 0.00 0.00 36 1008.7
20260502213930 16 181 4.8 20.9 0.00 0.00 0.00 35 1008.6
20260502213429 16 95 6.4 22.5 0.00 0.00 0.00 35 1008.6
20260502212928 16 56 6.4 22.5 0.00 0.00 0.00 35 1008.5
20260502211927 16 57 4.8 19.3 0.00 0.00 0.00 32 1008.4
20260502211424 16 328 6.4 20.9 0.00 0.00 0.00 33 1008.5
20260502210922 16 285 8.0 20.9 0.00 0.00 0.00 33 1008.5
20260502210417 16 338 8.0 19.3 0.00 0.00 0.00 33 1008.5
20260502205916 16 18 6.4 19.3 0.00 0.00 0.00 33 1008.5
20260502205418 17 62 6.4 17.7 0.00 0.00 0.00 33 1008.4
20260502204916 17 194 4.8 12.9 0.00 0.00 0.00 33 1008.3
20260502204419 17 56 4.8 12.9 0.00 0.00 0.00 34 1008.3
20260502203918 16 328 3.2 19.3 0.00 0.00 0.00 33 1008.4
20260502203417 16 353 1.6 19.3 0.00 0.00 0.00 34 1008.3
20260502202911 16 97 1.6 8.0 0.00 0.00 0.00 37 1008.3
20260502202411 16 18 4.8 14.5 0.00 0.00 0.00 38 1008.3
20260502201908 16 15 4.8 14.5 0.00 0.00 0.00 37 1008.4
20260502201409 16 29 3.2 9.7 0.00 0.00 0.00 36 1008.4
20260502200909 16 358 3.2 12.9 0.00 0.00 0.00 37 1008.4
20260502200409 16 336 3.2 12.9 0.00 0.00 0.00 36 1008.4
20260502195908 16 96 4.8 12.9 0.00 0.00 0.00 37 1008.4
20260502195406 16 15 4.8 17.7 0.00 0.00 0.00 37 1008.6
20260502194906 16 8 4.8 20.9 0.00 0.00 0.00 37 1008.6
20260502194405 16 327 6.4 20.9 0.00 0.00 0.00 38 1008.6
20260502193905 16 330 8.0 24.1 0.00 0.00 0.00 37 1008.8
20260502193403 16 334 4.8 24.1 0.00 0.00 0.00 37 1008.8
20260502192904 16 231 3.2 11.3 0.00 0.00 0.00 38 1008.9
20260502192357 16 64 3.2 16.1 0.00 0.00 0.00 37 1009.0
20260502191356 16 15 4.8 16.1 0.00 0.00 0.00 38 1009.3
20260502190857 16 20 4.8 14.5 0.00 0.00 0.00 38 1009.5
20260502190357 16 16 4.8 14.5 0.00 0.00 0.00 38 1009.5
20260502185900 16 346 4.8 16.1 0.00 0.00 0.00 39 1009.7
20260502185352 15 48 6.4 16.1 0.00 0.00 0.00 38 1009.7
20260502184852 15 25 4.8 16.1 0.00 0.00 0.00 37 1009.8
20260502184352 16 40 3.2 14.5 0.00 0.00 0.00 36 1009.9
20260502183854 16 339 4.8 14.5 0.00 0.00 0.00 37 1010.0
20260502183352 16 17 4.8 14.5 0.00 0.00 0.00 38 1009.9
20260502181347 15 297 4.8 16.1 0.00 0.00 0.00 38 1010.2
20260502180845 15 68 4.8 12.9 0.00 0.00 0.00 38 1010.3
20260502180346 16 327 3.2 12.9 0.00 0.00 0.00 37 1010.4
20260502170336 15 235 1.6 8.0 0.00 0.00 0.00 42 1010.7
20260502164327 14 80 1.6 11.3 0.00 0.00 0.00 45 1011.1
20260502163325 13 264 4.8 17.7 0.00 0.00 0.00 47 1011.2
20260502162824 13 80 4.8 17.7 0.00 0.00 0.00 47 1011.3
20260502162318 13 353 4.8 17.7 0.00 0.00 0.00 47 1011.1
20260502161322 13 318 4.8 12.9 0.00 0.00 0.00 45 1011.2
20260502152308 13 311 4.8 16.1 0.00 0.00 0.00 48 1011.6
20260502151807 13 300 4.8 16.1 0.00 0.00 0.00 49 1011.6
20260502151307 13 358 4.8 16.1 0.00 0.00 0.00 50 1011.8
20260502150307 13 11 6.4 16.1 0.00 0.00 0.00 49 1011.7
20260502130745 10 34 6.4 19.3 0.00 0.00 0.00 61 1011.5
20260502130245 10 15 6.4 19.3 0.00 0.00 0.00 63 1011.4
20260502123737 10 82 3.2 12.9 0.00 0.00 0.00 64 1011.5
20260502123237 10 57 4.8 14.5 0.00 0.00 0.00 65 1011.5
20260502122738 10 295 6.4 17.7 0.00 0.00 0.00 64 1011.5
20260502122230 10 316 6.4 22.5 0.00 0.00 0.00 65 1011.3
20260502121733 10 1 4.8 22.5 0.00 0.00 0.00 64 1011.4
20260502121231 10 322 3.2 16.1 0.00 0.00 0.00 65 1011.5
20260502120731 10 340 1.6 16.1 0.00 0.00 0.00 66 1011.6
20260502120231 10 345 3.2 14.5 0.00 0.00 0.00 67 1011.4
20260502115732 10 294 3.2 14.5 0.00 0.00 0.00 66 1011.4
20260502115223 10 0 3.2 11.3 0.00 0.00 0.00 65 1011.4
20260502114726 10 338 3.2 9.7 0.00 0.00 0.00 66 1011.3
20260502114227 10 78 4.8 12.9 0.00 0.00 0.00 66 1011.4
20260502113725 10 317 4.8 12.9 0.00 0.00 0.00 65 1011.5
20260502113225 10 258 4.8 16.1 0.00 0.00 0.00 65 1011.4
20260502112726 10 78 4.8 16.1 0.00 0.00 0.00 65 1011.4
20260502112221 10 315 4.8 12.9 0.00 0.00 0.00 65 1011.5
20260502111721 10 330 4.8 17.7 0.00 0.00 0.00 64 1011.5
20260502111220 10 346 4.8 17.7 0.00 0.00 0.00 64 1011.3
20260502110721 10 346 4.8 11.3 0.00 0.00 0.00 63 1011.2
20260502110220 10 335 4.8 14.5 0.00 0.00 0.00 63 1011.2
20260502105721 10 22 4.8 14.5 0.00 0.00 0.00 62 1011.1
20260502105212 10 345 4.8 14.5 0.00 0.00 0.00 62 1011.1
20260502104213 10 56 6.4 16.1 0.00 0.00 0.00 63 1011.1
20260502103713 10 307 8.0 22.5 0.00 0.00 0.00 63 1010.9
20260502103213 10 302 4.8 22.5 0.00 0.00 0.00 64 1010.8
20260502102712 10 307 3.2 12.9 0.00 0.00 0.00 64 1010.8
20260502102210 10 338 4.8 12.9 0.00 0.00 0.00 63 1010.7
20260502101709 11 327 4.8 12.9 0.00 0.00 0.00 64 1010.7
20260502101210 11 330 4.8 14.5 0.00 0.00 0.00 64 1010.6
20260502100710 11 51 4.8 17.7 0.00 0.00 0.00 63 1010.6
20260502100212 11 328 4.8 17.7 0.00 0.00 0.00 63 1010.5
20260502091159 11 36 3.2 12.9 0.00 0.00 0.00 63 1009.8
20260502090658 12 45 3.2 14.5 0.00 0.00 0.00 62 1009.7
20260502090158 12 340 4.8 14.5 0.00 0.00 0.00 62 1009.7
20260502071142 13 340 1.6 8.0 0.00 0.00 0.00 65 1009.7
20260502070638 13 347 0.0 6.4 0.00 0.00 0.00 65 1009.7
20260502070139 13 124 1.6 6.4 0.00 0.00 0.00 64 1009.5
20260502065138 13 321 3.2 16.1 0.00 0.00 0.00 64 1009.3